Regional Weather Roundup
Issued by NWS Cleveland, OH

Home | Current Version | Previous Version | Graphics & Text | Print | Product List | Glossary On
Versions: 1 2 3 4 5 6 7 8 9 10 11 12 13 14 15 16 17 18 19 20 21 22 23 24 25 26 27 28 29 30 31 32 33 34 35 36 37 38 39 40 41 42 43 44 45 46 47 48 49 50
000
ASUS41 KCLE 231600
RWRCLE
OHIO REGIONAL WEATHER ROUNDUP
NATIONAL WEATHER SERVICE WILMINGTON, OH
1200 PM EDT SAT AUG 23 2014

NOTE: "FAIR" INDICATES FEW OR NO CLOUDS BELOW 12,000 FEET WITH NO
SIGNIFICANT WEATHER AND/OR OBSTRUCTIONS TO VISIBILITY.

OHZ001>008-015>018-024>027-034-035-043-044-231700-
   NORTHWEST OHIO

CITY           SKY/WX    TMP DP  RH WIND       PRES   REMARKS
DEFIANCE       MOSUNNY   79  69  71 E6        30.05R
FINDLAY        CLOUDY    77  70  79 E5        30.05R
TOLEDO EXPRESS CLOUDY    76  67  73 NE6       30.05R
TOLEDO METCALF CLOUDY    75  68  78 NE6       30.07R
LIMA           CLOUDY    80  71  74 E3        30.05R
$$

OHZ009>014-019>023-028>033-038-089-231700-
   NORTHEAST OHIO

CITY           SKY/WX    TMP DP  RH WIND       PRES   REMARKS
CLE-HOPKINS    MOSUNNY   78  68  71 N9        30.06R
CLE-LAKEFRONT  SUNNY     76  68  76 NE13      30.04R
CUY CO. ARPT   MOSUNNY   79  68  69 NE9       30.05R
LORAIN-ELYRIA  MOSUNNY   82  67  60 NE3       30.05R
ASHTABULA      CLOUDY    71  66  84 NE7       30.06S
AKRON-CANTON   MOSUNNY   78  65  63 N5        30.05R
WOOSTER        NOT AVBL
MANSFIELD      MOSUNNY   79  68  69 CALM      30.06R
YOUNGSTOWN     PTSUNNY   76  65  68 NE8       30.05R
$$

OHZ042-051>053-060>062-070>072-077>081-231700-
  SOUTHWEST OHIO

CITY           SKY/WX    TMP DP  RH WIND       PRES   REMARKS
CINC-COVINGTON PTSUNNY   84  71  65 CALM      30.03S
CINC-LUNKEN    PTSUNNY   85  74  69 MISG      30.02S HX  92
HAMILTON       MOSUNNY   84  73  69 CALM      30.03R HX  90
DAYTON         NOT AVBL
WRIGHT-PAT AFB NOT AVBL
DAYTON GENERAL PTSUNNY   83  73  72 CALM      30.03R
WILMINGTON     MOSUNNY   81  71  71 CALM      30.03S
$$

OHZ036-037-039>041-045>050-054>059-063>069-073>076-082>088-231700-
  CENTRAL AND SOUTHEAST OHIO

CITY           SKY/WX    TMP DP  RH WIND       PRES   REMARKS
COLUMBUS       PTSUNNY   84  68  58 E5        30.02S
OSU AIRPORT    SUNNY     82  68  62 VRB3      30.03S
BOLTON FIELD   NOT AVBL
RICKENBACK AFB NOT AVBL
NEWARK         MOSUNNY   79  68  69 SE6       30.03S
MARION         MOSUNNY   79  70  74 E5        30.05R
LANCASTER      CLOUDY    75  71  87 VRB3      30.04S
ZANESVILLE     MOSUNNY   78  68  71 CALM      30.03S
NEW PHILLY     SUNNY     80  69  69 N5        30.04R
$$



USA.gov is the U.S. government's official web portal to all federal, state and local government web resources and services.